Location: Excel
(51.3833°N, 110.5667°W)
Time: 19:37:21
(UTC+00:00)

Envisat - Pass Details

Date: 03 December 2021
Orbit: 764 x 766 km, 98.2° (Epoch: 26 January)

Event Time Altitude Azimuth Distance (km) Brightness Sun altitude
Rises 12:47:42 0° 13° (NNE) 3,248 6.3 -20.9°
Reaches altitude 10° 12:50:01 10° 12° (NNE) 2,317 5.5 -20.5°
Maximum altitude 12:55:07 77° 287° (WNW) 793 2.9 -19.7°
Drops below altitude 10° 13:00:11 10° 203° (SSW) 2,299 5.4 -19.0°
Sets 13:02:28 0° 202° (SSW) 3,221 6.1 -18.6°
